Skip Page Navigation
NASA JPL Caltech
NASA Logo - Jet Propulsion Laboratory + View the NASA Portal
+ Near-Earth Object (NEO) Program
Search JPL
JPL Home Earth Solar System Stars & Galaxies Technology
JPL Solar System Dynamics
BODIES ORBITS EPHEMERIDES TOOLS PHYSICAL DATA DISCOVERY FAQ SITE MAP
JPL Small-Body Database Browser
Search: [ help ]  
297274 (1996 SK)
Classification: Apollo [NEO, PHA]          SPK-ID: 2297274
Ephemeris | Orbit Diagram | Orbital Elements | Physical Parameters | Discovery Circumstances | Close-Approach Data ]

[ hide orbit diagram ]
Orbit Diagram
Note: Make sure you have Java enabled on your browser to see the applet. This applet is provided as a 3D orbit visualization tool. The applet was implemented using 2-body methods, and hence should not be used for determining accurate long-term trajectories (over several years or decades) or planetary encounter circumstances. For accurate long-term ephemerides, please instead use our Horizons system.
Orbit Viewer

Additional Notes: the orbits shown in the applet are color coded. The planets are white lines, and the asteroid/comet is a blue line. The bright white line indicates the portion of the orbit that is above the ecliptic plane, and the darker portion is below the ecliptic plane. Likewise for the asteroid/comet orbit, the light blue indicates the portion above the ecliptic plane, and the dark blue the portion below the ecliptic plane.

Orbit Viewer applet originally written and kindly provided by Osamu Ajiki (AstroArts), and further modified by Ron Baalke (JPL).


Orbital Elements at Epoch 2456400.5 (2013-Apr-18.0) TDB
Reference: JPL 33 (heliocentric ecliptic J2000)
 Element Value Uncertainty (1-sigma)   Units 
e .7945238074085652 1.0603e-07  
a 2.434093594284215 4.4313e-08 AU
q .5001482841647212 2.5179e-07 AU
i 1.962346452832952 1.4083e-05 deg
node 197.5335431570069 0.00034941 deg
peri 284.2063332900269 0.00034915 deg
M 106.0292857992132 1.8861e-05 deg
tp 2455991.966502275437
(2012-Mar-05.46650228)
6.7933e-05 JED
period 1387.089029905869
3.80
3.7878e-05
1.037e-07
d
yr
n .2595363327359242 7.0873e-09 deg/d
Q 4.36803890440371 7.952e-08 AU
  Orbit Determination Parameters
   # obs. used (total)      198  
   data-arc span      5766 days (15.79 yr)  
   first obs. used      1996-09-13  
   last obs. used      2012-06-27  
   planetary ephem.      DE405  
   SB-pert. ephem.      SB405-CPV-2  
   condition code      0  
   fit RMS      .5239  
   data source      ORB  
   producer      Otto Matic  
   solution date      2013-Apr-29 15:41:26  

Additional Information
 Earth MOID = .00415727 AU 
 T_jup = 2.968 
[ show covariance matrix ]

Ephemeris | Orbit Diagram | Orbital Elements | Physical Parameters | Discovery Circumstances | Close-Approach Data ]

Physical Parameter Table
Parameter Symbol Value Units Sigma Reference Notes
absolute magnitude H 16.866 mag .73199 33 autocmod 2.5c

297274 (1996 SK)          Discovered 1996-Sep-17 by NEAT at Haleakala (566)
Reference: 20111012/Numbers.arcLast Updated: 2011-10-13

[ show close-approach data ]
Ephemeris | Orbit Diagram | Orbital Elements | Physical Parameters | Discovery Circumstances | Close-Approach Data ]
ABOUT SSD CREDITS/AWARDS PRIVACY/COPYRIGHT GLOSSARY LINKS
FirstGov 2013-May-19 13:29 UT
(server date/time)  
NASA Home Page
Site Manager:   Donald K. Yeomans
Webmaster  Alan B. Chamberlin